TimeCST,TemperatureF,Dew PointF,Humidity,Sea Level PressureIn,VisibilityMPH,Wind Direction,Wind SpeedMPH,Gust SpeedMPH,PrecipitationIn,Events,Conditions,WindDirDegrees,DateUTC
12:53 AM,21.9,10.9,63,30.26,10.0,NNW,16.1,-,N/A,,Clear,330,2014-01-15 06:53:00
1:53 AM,21.0,10.9,65,30.26,10.0,NNW,9.2,-,N/A,,Clear,330,2014-01-15 07:53:00
2:53 AM,19.9,10.0,65,30.27,10.0,NW,15.0,-,N/A,,Clear,320,2014-01-15 08:53:00
3:53 AM,19.0,9.0,65,30.28,10.0,NW,11.5,-,N/A,,Clear,310,2014-01-15 09:53:00
4:53 AM,17.1,8.1,68,30.28,10.0,NW,8.1,-,N/A,,Clear,320,2014-01-15 10:53:00
5:53 AM,17.1,8.1,68,30.28,10.0,NNW,9.2,-,N/A,,Clear,330,2014-01-15 11:53:00
6:53 AM,17.1,8.1,68,30.29,10.0,NNW,8.1,-,N/A,,Clear,330,2014-01-15 12:53:00
7:53 AM,14.0,7.0,74,30.29,10.0,NW,4.6,-,N/A,,Clear,310,2014-01-15 13:53:00
8:53 AM,17.1,8.1,68,30.30,10.0,WNW,8.1,-,N/A,,Clear,290,2014-01-15 14:53:00
9:53 AM,19.0,8.1,62,30.30,10.0,NNW,6.9,-,N/A,,Clear,330,2014-01-15 15:53:00
10:53 AM,23.0,8.1,53,30.29,10.0,West,6.9,-,N/A,,Clear,280,2014-01-15 16:53:00
11:53 AM,24.1,6.1,46,30.23,10.0,WSW,4.6,-,N/A,,Clear,240,2014-01-15 17:53:00
12:53 PM,28.0,6.1,39,30.18,10.0,WSW,6.9,-,N/A,,Clear,250,2014-01-15 18:53:00
1:53 PM,30.0,3.9,33,30.14,10.0,SW,5.8,-,N/A,,Scattered Clouds,220,2014-01-15 19:53:00
2:53 PM,30.9,9.0,40,30.10,10.0,SSW,10.4,-,N/A,,Overcast,210,2014-01-15 20:53:00
3:53 PM,30.9,10.0,42,30.06,10.0,South,11.5,-,N/A,,Overcast,190,2014-01-15 21:53:00
4:53 PM,32.0,14.0,48,30.04,10.0,South,9.2,-,N/A,,Scattered Clouds,170,2014-01-15 22:53:00
5:53 PM,30.9,16.0,54,29.99,10.0,South,11.5,-,N/A,,Partly Cloudy,180,2014-01-15 23:53:00
6:53 PM,32.0,17.1,54,29.97,10.0,South,12.7,-,N/A,,Mostly Cloudy,190,2014-01-16 00:53:00
7:53 PM,33.1,18.0,54,29.94,10.0,South,12.7,-,N/A,,Overcast,190,2014-01-16 01:53:00
8:53 PM,34.0,19.9,56,29.88,10.0,South,13.8,-,N/A,,Overcast,190,2014-01-16 02:53:00
9:53 PM,35.1,21.0,57,29.87,10.0,SSW,11.5,-,N/A,,Overcast,200,2014-01-16 03:53:00
10:53 PM,35.1,24.1,64,29.86,10.0,SW,5.8,-,0.00,,Overcast,220,2014-01-16 04:53:00
11:53 PM,35.1,25.0,67,29.82,10.0,SW,5.8,-,0.00,,Overcast,220,2014-01-16 05:53:00